Location: ????????
(55.1591°N, 39.1782°E)
Time: 10:18:15
(UTC+00:00)

CZ-2D R/B - Pass Details

Date: 14 April 2024
Orbit: 791 x 842 km, 98.8° (Epoch: 28 May)

Event Time Altitude Azimuth Distance (km) Brightness Sun altitude
Rises 00:53:36 0° 12° (NNE) 3,338 6.1 -12.0°
Reaches altitude 10° 00:56:07 10° 4° (N) 2,410 5.2 -11.7°
Maximum altitude 01:00:48 33° 302° (WNW) 1,361 3.1 -11.1°
Enters shadow 01:04:48 14° 244° (WSW) 2,177 3.7 -10.7°
